www.pogodaiklimat.ru

Погода и климат >> Архив погоды >> Россия >> Чукотка >> Чаун


ПОГОДА в Чауне

  • Прогноз погоды в Чауне
  • Монитор погоды в Чауне

АРХИВ ПОГОДЫ в Чауне

Время (UTC), дата Ветер
(напр.,м/с)
 
Видим.   Явления Облачность Т
(С)
Тd
(С)
f
(%)
Тe
(С)
Тes
(С)
Комфортность P
(гПа)
Po
(гПа)
Тmin
(С)
Tmax
(С)
R
(мм)
R24
(мм)
S
(см)
09 19.04 СЗ 13-15
{17}
4000 м слаб. снег {метель} 10/3 200 м
[Frnb As op]
-9.1 -10.6 89 -21 -21 1016.2 1015.6 -2.6
12 19.04 СЗ 11-15
{16}
4000 м слаб. снег {метель} 10/3 200 м
[Frnb As op]
-11.1 -13.0 86 -22 -22 1018.0 1017.4
15 19.04 СЗ 10-15
{15}
4000 м слаб. снег {метель} 10/3 200 м
[Frnb As op]
-11.1 -13.1 85 -22 -22 1019.7 1019.1
18 19.04 СЗ 3
{15}
20 км {снег, метель} 10/0
[Ac und]
-12.3 -14.3 85 -18 -18 1020.8 1020.2
21 19.04 Ю 2
{8}
4000 м слаб. снег 10/3 200 м
[Frnb As op]
-11.9 -13.9 85 -16 -16 1021.4 1020.8 -13.9 0.8 49
00 20.04 СЗ 4
{5}
4000 м слаб. снег 10/3 200 м
[Frnb As op]
-10.2 -13.0 80 -17 -17 1021.5 1020.9
03 20.04 З 2
{7}
4000 м слаб. снег 10/3 200 м
[Frnb As op]
-10.6 -13.4 80 -15 -14 1021.1 1020.5
06 20.04 Ю 1
{4}
20 км {снег} 10/3 200 м
[St Ac trans]
-10.0 -13.6 75 -12 -12 1020.5 1019.9
09 20.04 З 4
{6}
20 км 9/3 200 м
[St Ac trans]
-15.1 -18.5 75 -23 -23 1020.8 1020.2 -9.9 0.7
12 20.04 З 4
{8}
20 км 9/3 200 м
[St Ac trans]
-13.6 -17.1 75 -21 -21 1020.7 1020.1
15 20.04 З 5
{9}
20 км 9/3 200 м
[St Ac trans]
-13.6 -15.6 85 -22 -22 1020.4 1019.8
18 20.04 СЗ 8
{10}
20 км позёмок 10/3 200 м
[St Ac und]
-14.4 -16.6 83 -25 -25 1020.8 1020.2
21 20.04 СЗ 6
{9}
20 км позёмок 9/3 200 м
[St Ac trans]
-14.4 -17.1 80 -24 -23 1021.7 1021.1 -16.1 48
00 21.04 СЗ 9-11
{11}
20 км позёмок 9/3 200 м
[St Ac trans]
-13.0 -15.7 80 -24 -24 1022.3 1021.7
03 21.04 СЗ 9-11
{11}
20 км позёмок 9/3 200 м
[St Ac trans]
-12.7 -15.4 80 -23 -23 1023.1 1022.5
06 21.04 СЗ 8-10
{11}
20 км позёмок 10/3 200 м
[St Ac und]
-12.8 -15.5 80 -23 -23 1023.6 1023.0
09 21.04 СЗ 6
{10}
20 км позёмок 10/3 200 м
[St Ac und]
-14.6 -16.6 85 -24 -24 1025.0 1024.4 -12.6
12 21.04 СЗ 5
{9}
20 км {метель} 8/3 200 м
[St Ac trans]
-17.0 -18.9 85 -26 -26 1025.5 1024.9
15 21.04 СЗ 4
{6}
20 км 9/3 200 м
[St Ac trans]
-18.6 -20.5 85 -27 -27 1026.4 1025.7
18 21.04 СЗ 5
{8}
20 км 10/3 200 м
[St Ac und]
-16.3 -18.3 84 -25 -25 1026.8 1026.2
21 21.04 СЗ 3
{7}
4000 м слаб. снег 10/3 200 м
[Frnb As op]
-15.5 -17.4 85 -22 -22 1027.3 1026.7 -20.3 0.3 48
00 22.04 СЗ 3
{5}
4000 м слаб. снег 10/3 200 м
[Frnb As op]
-14.9 -17.6 80 -21 -21 1027.2 1026.6
03 22.04 СЗ 1
{4}
20 км {снег} 10/3 200 м
[St Ac und]
-14.3 -17.7 75 -17 -15 1027.4 1026.8
06 22.04 СЗ 1
{4}
20 км {снег} 10/3 200 м
[St Ac und]
-15.2 -17.7 81 -18 -17 1027.5 1026.9
09 22.04 Ю 2
{3}
20 км 10/3 200 м
[St Ac und]
-16.2 -17.6 89 -21 -21 1027.7 1027.1 -13.8 0.3
12 22.04 ЮВ 3
{5}
20 км 9/3 200 м
[St Ac trans]
-16.8 -18.7 85 -24 -24 1027.9 1027.3
15 22.04 ЮВ 4
{5}
20 км 10/3 200 м
[St Ac und]
-17.6 -19.6 84 -26 -26 1027.8 1027.1
18 22.04 ЮВ 5
{6}
20 км 10/3 200 м
[St Ac und]
-17.9 -20.0 84 -27 -27 1027.4 1026.7
21 22.04 ЮВ 5
{6}
50 км 4/0
[Ac trans]
-16.4 -18.3 85 -26 -24 1026.6 1026.0 -18.3 48
00 23.04 ЮВ 5
{6}
50 км 4/0
[Ac trans]
-14.6 -16.6 85 -23 -20 1025.9 1025.3
03 23.04 ЮВ 4
{7}
50 км 3/0
[Ac trans]
-12.5 -14.5 85 -20 -17 1024.9 1024.3
06 23.04 Ю 3
{5}
50 км 3/0
[Ac trans]
-14.3 -17.0 80 -21 -20 1024.1 1023.5
09 23.04 ЮВ 4
{6}
50 км 3/0
[Ci fib]
-16.8 -19.4 80 -25 -25 1024.0 1023.4 -12.3
12 23.04 ЮВ 4
{6}
50 км ясно -18.3 -20.9 80 -27 -27 1023.3 1022.7
15 23.04 ЮВ 4
{7}
50 км ясно -21.7 -24.2 80 -31 -31 опасность
обморожения
1022.6 1022.0
18 23.04 ЮВ 4
{6}
50 км 3/0
[Ci fib]
-22.7 -25.2 80 -32 -32 опасность
обморожения
1022.4 1021.7
21 23.04 Ю 3
{5}
50 км 3/0
[Ci fib]
-19.1 -22.4 75 -27 -23 1021.7 1021.1 -23.4 48
00 24.04 ЮВ 3
{5}
50 км 3/0
[Ci fib]
-11.5 -15.2 74 -17 -12 1020.7 1020.1
03 24.04 В 5
{7}
50 км 3/0
[Ci fib]
-7.6 -12.1 70 -15 -12 1019.3 1018.7
06 24.04 В 8
{10}
50 км позёмок 3/0
[Ci fib]
-8.4 -12.1 75 -18 -17 1018.3 1017.7
09 24.04 В 8-10
{11}
50 км позёмок 3/0
[Ci fib]
-12.0 -15.4 76 -22 -22 1017.9 1017.3 -7.4
12 24.04 ЮВ 7
{10}
50 км позёмок 3/0
[Ci fib]
-12.7 -15.5 80 -22 -22 1017.5 1016.9
15 24.04 ЮВ 9-11
{14}
50 км позёмок 3/0
[Ci fib]
-12.5 -15.9 76 -23 -23 1016.8 1016.2
18 24.04 ЮВ 9-11
{13}
50 км позёмок 3/0
[Ci fib]
-12.7 -16.2 75 -23 -23 1016.5 1015.9
21 24.04 ЮВ 8
{11}
50 км позёмок 3/0
[Ci fib]
-10.2 -13.8 75 -20 -19 1016.4 1015.8 -14.9 48
00 25.04 ЮВ 10-12
{12}
50 км позёмок 3/0
[Ci fib]
-6.9 -9.8 80 -17 -17 1015.6 1015.0
03 25.04 ЮВ 8-10
{12}
50 км позёмок 3/0
[Ci fib]
-5.6 -8.2 82 -14 -13 1015.2 1014.6
06 25.04 ЮВ 6
{10}
50 км позёмок 4/0
[Ac lent Ci fib]
-6.1 -8.4 84 -14 -14 1015.1 1014.5
09 25.04 ЮВ 7
{8}
50 км позёмок 4/0
[Ac lent Ci fib]
-9.1 -11.1 85 -18 -18 1015.6 1015.0 -5.3
12 25.04 ЮВ 8
{10}
50 км позёмок 6/0
[Ac lent]
-10.2 -12.2 85 -20 -20 1015.6 1015.0
15 25.04 ЮВ 8-10
{10}
50 км позёмок 9/0
[Ac trans]
-8.9 -10.9 85 -18 -18 1015.6 1015.0
18 25.04 ЮВ 8
{10}
50 км позёмок 8/0
[Ac trans]
-8.8 -11.2 83 -18 -18 1015.9 1015.3
21 25.04 ЮВ 7
{10}
50 км позёмок 6/0
[Ac lent Ci fib]
-6.8 -9.2 83 -15 -14 1015.9 1015.3 -10.4 47
00 26.04 ЮВ 7
{10}
50 км позёмок 4/0
[Ci fib]
-3.5 -6.0 83 -11 -10 1015.6 1015.0
03 26.04 ЮВ 7
{9}
50 км позёмок 4/0
[Ci fib]
-1.9 -4.0 86 -10 -8 1014.4 1013.8
06 26.04 ЮВ 7
{10}
50 км позёмок 3/0
[Ci fib]
-2.4 -4.3 87 -10 -10 1013.2 1012.6

 

Местоположение метеостанции Чаун (Чукотка, Россия): широта 68.88 долгота 170.70 высота над уровнем моря 5 м.

В архиве по умолчанию представлена погода в Чауне за последнюю неделю. Архивные данные за месяц целиком и за предыдущие месяцы, начиная с января 2011 года, Вы можете получить, выбрав интересующий диапазон дат из раскрывающегося списка и нажав кнопку "Ввод!".


*Определитесь, кто Вы:
робот инопланетянин человек

Внимание! Время в таблицах - всемирное. Для получения местного времени необходимо прибавить поправку, которая равна 12 ч.

Смотрите также архив погоды в соседних городах и на ближайших метеорологических станциях:

Погода на 21 км (Чукотка, Россия) (84 км)
Погода в Комсомольской (Чукотка, Россия) (89 км)
Погода в Певеке (Чукотка, Россия) (93 км)
Погода в Майской (Чукотка, Россия) (117 км)
Погода в Валькаркае (Чукотка, Россия) (134 км)
Погода в Паляваам-Глубокой (Чукотка, Россия) (137 км)
Погода на Айон Острове (Чукотка, Россия) (160 км)
Погода в Раучуе (Чукотка, Россия) (180 км)
Погода в Билибино (Чукотка, Россия) (198 км)
Погода в Илирнее (Чукотка, Россия) (215 км)

Пояснения к столбцам:

Ветер - указаны скорость ветра в м/с - средняя за 10 мин, порывы в срок и между сроками (в фигурных скобках) и направление, откуда дует ветер: С - северный, СВ - северо-восточный, В - восточный, ЮВ - юго-восточный, Ю - южный, ЮЗ - юго-западный, З - западный, СЗ - северо-западный.
Видимость - горизонтальная дальность видимости в метрах или километрах. При видимости от 1 до 10 км при отсутствии осадков обычно наблюдается дымка, при ухудшении видимости до 1 км и менее - туман. В сухую погоду видимость может ухудшаться дымом, пылью или мглою.
Явления - указаны атмосферные явления, наблюдавшиеся в срок или в последний час перед сроком; фигурными скобками обозначены явления, наблюдавшиеся между сроками (за 1-3 часа до срока); квадратными скобками обозначены град или гололедные отложения с указанием их диаметра в мм.
Облачность - указаны через наклонную черту общая и нижняя облачность в баллах и высота нижней границы облаков в метрах; квадратными скобками обозначены формы облаков: Ci - перистые, Cs - перисто-слоистые, Cc - перисто-кучевые, Ac - высококучевые, As - высокослоистые, Sc - слоисто-кучевые, Ns - слоисто-дождевые, Cu - кучевые, Cb - кучево-дождевые. Подробнее классификацию облаков см. в Атласе облаков (PDF).
T - Температура воздуха - температура, измеренная на высоте 2 м над землей.
Td - Температура точки росы - температура, при понижении до которой содержащийся в воздухе водяной пар достигнет насыщения.
f - Относительная влажность воздуха - влажноcть воздуха, измеренная на высоте 2 м над землей.
Te - Эффективная температура - температура, которую ощущает одетый по сезону человек в тени. Характеристика душности погоды. При расчете учитывается влияние влажности воздуха и скорости ветра на теплоощущения человека.
Tes - Эффективная температура на солнце - температура, которую ощущает человек, с поправкой на солнечный нагрев. Характеристика знойности погоды. Зависит от высоты солнца над горизонтом, облачности и скорости ветра. Ночью, в пасмурную погоду, а также при ветре 12 м/с и более поправка равна нулю.
P - Атмосферное давление - приведенное к уровню моря атмосферное давление.
Po - Атмосферное давление - измеренное на уровне метеостанции атмосферное давление.
Tmin - Минимальная температура - минимум температуры воздуха на высоте 2 м над землей.
Tmax - Максимальная температура - максимум температуры воздуха на высоте 2 м над землей.
R - Количество осадков - Количество выпавших осадков за период времени, мм. При наведении курсора мыши на число - период времени, за который выпало указанное количество осадков.
R24 - Количество осадков - Количество выпавших осадков за 24 часа, мм.
S - Снежный покров - Высота снежного покрова, см. При наведении курсора мыши на число - состояние снежного покрова и степень покрытия местности в баллах.